CW8721 Weather Reports


Display with metric or nautical units.
time (UTC)temp
F
wind
direction
speed
MPH
gust
MPH
rain 1hr
in
rain 24hr
in
rain mn
in
humidity
%
barometer
mb
20220528204533 57 39 1.0 3.0 0.00 0.04 0.04 78 1004.2
20220528204033 56 319 0.0 3.0 0.00 0.04 0.04 81 1004.2
20220528203533 56 31 0.0 4.0 0.00 0.04 0.04 80 1004.3
20220528203039 55 69 0.0 4.0 0.00 0.04 0.04 80 1004.2
20220528202533 55 88 0.0 4.0 0.00 0.04 0.04 81 1004.2
20220528202036 55 60 0.0 4.0 0.01 0.04 0.04 80 1004.2
20220528201537 55 52 1.0 3.0 0.01 0.04 0.04 82 1004.3
20220528201033 55 355 1.0 4.0 0.01 0.04 0.04 82 1004.3
20220528200532 55 47 0.0 4.0 0.01 0.04 0.04 82 1004.3
20220528200055 55 49 1.0 4.0 0.01 0.04 0.04 82 1004.3
20220528195534 55 51 0.0 2.0 0.01 0.04 0.04 83 1004.2
20220528195034 55 40 0.0 3.0 0.01 0.04 0.04 80 1004.2
20220528194543 55 42 0.0 2.0 0.01 0.04 0.04 82 1004.3
20220528194032 55 42 0.0 4.0 0.01 0.04 0.04 82 1004.3
20220528193532 55 351 0.0 4.0 0.01 0.04 0.04 83 1004.3
20220528193032 55 56 0.0 3.0 0.01 0.04 0.04 84 1004.3
20220528192531 55 55 0.0 2.0 0.01 0.04 0.04 84 1004.3
20220528192031 55 62 0.0 5.0 0.00 0.03 0.03 84 1004.3
20220528191533 55 116 1.0 5.0 0.00 0.03 0.03 85 1004.2
20220528191031 55 91 0.0 6.0 0.00 0.03 0.03 85 1004.1
20220528190530 55 30 2.0 4.0 0.00 0.03 0.03 84 1004.2
20220528190030 55 65 0.0 3.0 0.00 0.03 0.03 85 1004.3
20220528185532 54 54 0.0 3.0 0.01 0.03 0.03 84 1004.3
20220528185031 54 54 0.0 5.0 0.01 0.03 0.03 84 1004.2
20220528184529 55 20 2.0 5.0 0.02 0.03 0.03 85 1004.3
20220528184030 54 39 1.0 6.0 0.02 0.03 0.03 84 1004.3
20220528183529 55 22 3.0 10.0 0.03 0.03 0.03 84 1004.2
20220528183032 55 59 5.0 10.0 0.03 0.03 0.03 84 1004.2
20220528182533 54 79 3.0 11.0 0.03 0.03 0.03 85 1004.2
20220528182030 54 332 4.0 12.0 0.03 0.03 0.03 86 1004.3
20220528181528 54 32 6.0 12.0 0.03 0.03 0.03 86 1004.4
20220528181032 54 355 6.0 11.0 0.03 0.03 0.03 85 1004.4
20220528180531 54 9 7.0 12.0 0.03 0.03 0.03 85 1004.4
20220528180039 54 19 7.0 14.0 0.03 0.03 0.03 85 1004.3
20220528175529 54 50 8.0 14.0 0.02 0.02 0.02 85 1004.2
20220528175029 54 38 6.0 10.0 0.02 0.02 0.02 84 1004.2
20220528174526 54 34 5.0 9.0 0.01 0.01 0.01 83 1004.5
20220528174026 54 26 3.0 10.0 0.01 0.01 0.01 83 1004.6
20220528173525 54 25 4.0 12.0 0.00 0.00 0.00 82 1004.6
20220528173025 54 349 7.0 12.0 0.00 0.00 0.00 82 1004.6
20220528172526 54 5 5.0 13.0 0.00 0.00 0.00 81 1004.6
20220528172023 54 27 6.0 13.0 0.00 0.00 0.00 80 1004.5
20220528171523 55 5 7.0 13.0 0.00 0.00 0.00 78 1004.5
20220528171021 55 30 7.0 17.0 0.00 0.00 0.00 76 1004.4
20220528170519 55 333 10.0 17.0 0.00 0.00 0.00 74 1004.4
20220528170018 56 5 8.0 15.0 0.00 0.00 0.00 73 1004.3
20220528165519 56 333 8.0 16.0 0.00 0.00 0.00 72 1004.4
20220528165018 56 344 8.0 18.0 0.00 0.00 0.00 71 1004.3
20220528164524 56 34 11.0 18.0 0.00 0.00 0.00 70 1004.1
20220528164014 57 12 11.0 19.0 0.00 0.00 0.00 69 1003.8
20220528163512 57 351 12.0 19.0 0.00 0.00 0.00 69 1003.9
20220528163012 57 349 9.0 18.0 0.00 0.00 0.00 69 1004.1
20220528162511 58 339 11.0 18.0 0.00 0.00 0.00 68 1004.2
20220528162014 58 360 12.0 18.0 0.00 0.00 0.00 68 1004.0
20220528161520 59 26 10.0 20.0 0.00 0.00 0.00 67 1003.7
20220528161010 60 15 12.0 18.0 0.00 0.00 0.00 64 1003.5
20220528160510 60 336 11.0 18.0 0.00 0.00 0.00 64 1003.2
20220528160008 59 360 12.0 19.0 0.00 0.00 0.00 63 1003.0
20220528155504 59 28 10.0 20.0 0.00 0.00 0.00 63 1002.8
20220528155007 59 355 12.0 20.0 0.00 0.00 0.00 62 1002.9
20220528154504 59 355 9.0 17.0 0.00 0.00 0.00 63 1003.0
20220528154006 59 319 11.0 19.0 0.00 0.00 0.00 63 1002.9
20220528153504 59 27 10.0 21.0 0.00 0.00 0.00 64 1002.8
20220528153005 59 5 11.0 21.0 0.00 0.00 0.00 63 1002.9
20220528152503 59 323 10.0 21.0 0.00 0.00 0.00 62 1002.9
20220528152005 59 327 13.0 20.0 0.00 0.00 0.00 63 1002.8
20220528151505 59 332 11.0 18.0 0.00 0.00 0.00 62 1002.7
20220528151003 59 5 11.0 18.0 0.00 0.00 0.00 63 1002.5
20220528150600 59 18 9.0 17.0 0.00 0.00 0.00 65 1002.3
20220528150059 58 338 11.0 18.0 0.00 0.00 0.00 64 1002.3
20220528145558 58 344 9.0 20.0 0.00 0.00 0.00 65 1002.3
20220528145100 58 327 15.0 20.0 0.00 0.00 0.00 64 1002.4
20220528144602 58 326 9.0 19.0 0.00 0.00 0.00 65 1002.4
20220528144056 58 325 11.0 21.0 0.00 0.00 0.00 65 1002.5
20220528143555 58 344 14.0 21.0 0.00 0.00 0.00 65 1002.3
20220528143054 58 302 9.0 18.0 0.00 0.00 0.00 65 1002.1
20220528142554 58 275 8.0 18.0 0.00 0.00 0.00 67 1002.1
20220528142053 58 279 10.0 18.0 0.00 0.00 0.00 66 1002.1
20220528141603 58 270 8.0 15.0 0.00 0.00 0.00 67 1002.2
20220528141050 58 295 6.0 15.0 0.00 0.00 0.00 66 1002.2
20220528140549 59 300 8.0 15.0 0.00 0.00 0.00 63 1002.1
20220528140047 59 315 5.0 13.0 0.00 0.00 0.00 62 1002.3
20220528135546 59 311 8.0 13.0 0.00 0.00 0.00 62 1002.3
20220528135045 59 324 5.0 13.0 0.00 0.00 0.00 61 1002.2
20220528134544 59 337 7.0 13.0 0.00 0.00 0.00 59 1002.3
20220528134044 59 301 4.0 10.0 0.00 0.00 0.00 60 1002.1
20220528133543 59 269 5.0 13.0 0.00 0.00 0.00 59 1002.1
20220528133041 59 315 7.0 14.0 0.00 0.00 0.00 58 1002.0
20220528132541 59 329 7.0 14.0 0.00 0.00 0.00 57 1001.8
20220528132040 60 311 8.0 12.0 0.00 0.00 0.00 56 1001.8
20220528131544 60 313 7.0 18.0 0.00 0.00 0.00 56 1001.8
20220528131044 60 333 10.0 18.0 0.00 0.00 0.00 54 1001.9
20220528130537 60 349 11.0 16.0 0.00 0.00 0.00 54 1001.9
20220528130035 61 346 8.0 16.0 0.00 0.00 0.00 52 1001.8
20220528125534 61 360 8.0 16.0 0.00 0.00 0.00 51 1001.5
20220528125034 61 355 9.0 16.0 0.00 0.00 0.00 51 1001.4
20220528124536 62 332 8.0 15.0 0.00 0.00 0.00 50 1001.7
20220528124032 62 298 7.0 14.0 0.00 0.00 0.00 50 1001.8
20220528123534 62 325 10.0 17.0 0.00 0.00 0.00 48 1001.8
20220528123103 62 317 11.0 17.0 0.00 0.00 0.00 51 1001.7
20220528122529 62 323 9.0 18.0 0.00 0.00 0.00 49 1001.5
20220528122028 62 347 8.0 17.0 0.00 0.00 0.00 48 1001.4
20220528121556 62 326 9.0 18.0 0.00 0.00 0.00 49 1001.2
20220528121026 62 325 11.0 18.0 0.00 0.00 0.00 49 1000.8
20220528120526 62 355 12.0 18.0 0.00 0.00 0.00 49 1000.5
20220528120023 62 320 8.0 15.0 0.00 0.00 0.00 49 1000.5
20220528115523 62 323 9.0 15.0 0.00 0.00 0.00 49 1000.4
20220528115021 62 292 6.0 16.0 0.00 0.00 0.00 49 1000.2
20220528114521 63 314 6.0 15.0 0.00 0.00 0.00 49 1000.2
20220528114023 63 325 5.0 13.0 0.00 0.00 0.00 49 1000.0
20220528113520 63 298 2.0 6.0 0.00 0.00 0.00 48 999.9
20220528113024 63 302 3.0 11.0 0.00 0.00 0.00 47 999.9
20220528112520 64 292 5.0 11.0 0.00 0.00 0.00 48 999.8
20220528112028 64 309 3.0 8.0 0.00 0.00 0.00 47 999.7
20220528111534 64 294 3.0 8.0 0.00 0.00 0.00 46 999.6
20220528111020 64 320 4.0 10.0 0.00 0.00 0.00 46 999.6
20220528110519 64 319 6.0 14.0 0.00 0.00 0.00 45 999.4
20220528110028 64 326 7.0 16.0 0.00 0.00 0.00 45 999.4
20220528105521 64 325 9.0 14.0 0.00 0.00 0.00 45 999.4
20220528105018 64 339 10.0 14.0 0.00 0.00 0.00 46 999.2
20220528104533 64 332 8.0 14.0 0.00 0.00 0.00 47 999.2
20220528104018 64 290 6.0 13.0 0.00 0.00 0.00 50 999.3
20220528103518 64 242 6.0 13.0 0.00 0.00 0.00 51 999.2
20220528103021 64 275 7.0 15.0 0.00 0.00 0.00 53 999.2
20220528102517 63 289 10.0 16.0 0.00 0.00 0.00 52 999.2
20220528102019 63 288 10.0 16.0 0.00 0.00 0.00 53 999.2
20220528101516 63 264 9.0 15.0 0.00 0.00 0.00 53 999.3
20220528101016 63 279 8.0 15.0 0.00 0.00 0.00 54 999.1
20220528100515 63 271 8.0 15.0 0.00 0.00 0.00 54 999.2
20220528100017 63 277 9.0 15.0 0.00 0.00 0.00 54 999.4
20220528095514 63 287 8.0 15.0 0.00 0.00 0.00 55 999.4
20220528095014 63 272 9.0 15.0 0.00 0.00 0.00 53 999.2
20220528094513 63 281 5.0 12.0 0.00 0.00 0.00 55 999.2
20220528094012 62 309 6.0 11.0 0.00 0.00 0.00 60 999.0
20220528093511 63 315 7.0 11.0 0.00 0.00 0.00 57 999.0
20220528093010 61 333 5.0 10.0 0.00 0.00 0.00 66 999.1
20220528092509 62 295 4.0 12.0 0.00 0.00 0.00 66 999.2
20220528092015 62 289 5.0 12.0 0.00 0.00 0.00 67 999.1
20220528091508 62 265 6.0 13.0 0.00 0.00 0.00 66 999.1
20220528091006 62 261 8.0 13.0 0.00 0.00 0.00 62 999.1
20220528090506 62 250 3.0 5.0 0.00 0.00 0.00 61 999.2
20220528090006 63 251 0.0 2.0 0.00 0.00 0.00 59 999.0
20220528085505 62 251 0.0 3.0 0.00 0.00 0.00 53 999.0
20220528085002 63 251 1.0 4.0 0.00 0.00 0.00 61 999.1
20220528084501 64 247 1.0 3.0 0.00 0.00 0.00 53 999.2
20220528084102 65 247 0.0 5.0 0.00 0.00 0.00 50 999.1
20220528083559 65 247 1.0 5.0 0.00 0.00 0.00 48 999.2
20220528083058 66 282 0.0 1.0 0.00 0.00 0.00 45 999.1
20220528082559 66 283 0.0 1.0 0.00 0.00 0.00 43 999.1
20220528082058 66 283 0.0 2.0 0.00 0.00 0.00 44 999.2
20220528081600 66 282 0.0 2.0 0.00 0.00 0.00 46 999.3
20220528081056 66 285 0.0 1.0 0.00 0.00 0.00 42 999.2
20220528080601 66 284 0.0 0.0 0.00 0.00 0.00 43 999.3
20220528080101 66 284 0.0 2.0 0.00 0.00 0.00 45 999.4
20220528075555 66 284 0.0 2.0 0.00 0.00 0.00 45 999.3
20220528075052 67 161 0.0 1.0 0.00 0.00 0.00 40 999.4
20220528074552 67 161 0.0 3.0 0.00 0.00 0.00 43 999.3
20220528074050 68 161 0.0 3.0 0.00 0.00 0.00 41 999.4
20220528073551 68 107 0.0 3.0 0.00 0.00 0.00 39 999.4
20220528073049 69 144 0.0 4.0 0.00 0.00 0.00 42 999.5
20220528072548 68 143 0.0 4.0 0.00 0.00 0.00 40 999.6
20220528072047 68 55 0.0 3.0 0.00 0.00 0.00 41 999.6
20220528071548 69 49 1.0 3.0 0.00 0.00 0.00 40 999.6
20220528071045 69 109 0.0 1.0 0.00 0.00 0.00 38 999.6
20220528070546 69 109 0.0 1.0 0.00 0.00 0.00 37 999.5
20220528070043 69 109 0.0 1.0 0.00 0.00 0.00 37 999.7
20220528065546 69 109 0.0 3.0 0.00 0.00 0.00 38 999.7
20220528065045 70 102 0.0 3.0 0.00 0.00 0.00 38 999.7
20220528064541 70 100 0.0 3.0 0.00 0.00 0.00 37 999.9
20220528064040 70 98 1.0 3.0 0.00 0.00 0.00 36 1000.0
20220528063538 71 117 1.0 3.0 0.00 0.00 0.00 34 1000.2
20220528063037 72 196 0.0 2.0 0.00 0.00 0.00 34 1000.4
20220528062537 72 184 0.0 1.0 0.00 0.00 0.00 33 1000.5
20220528062041 72 180 0.0 1.0 0.00 0.00 0.00 32 1000.3
20220528061549 72 204 0.0 2.0 0.00 0.00 0.00 32 1000.2
20220528061035 72 205 0.0 2.0 0.00 0.00 0.00 33 1000.5
20220528060533 72 190 0.0 2.0 0.00 0.00 0.00 34 1000.6
20220528060032 72 192 0.0 4.0 0.00 0.00 0.00 33 1000.8
20220528055532 72 209 1.0 4.0 0.00 0.00 0.00 33 1000.7
20220528055034 72 197 0.0 4.0 0.00 0.00 0.00 34 1000.6
20220528054533 72 192 1.0 4.0 0.00 0.00 0.00 34 1000.6
20220528054031 72 181 0.0 5.0 0.00 0.00 0.00 35 1000.6
20220528053532 72 180 0.0 5.0 0.00 0.00 0.00 35 1000.5
20220528053033 72 155 0.0 3.0 0.00 0.00 0.00 37 1000.6
20220528052530 72 153 0.0 3.0 0.00 0.00 0.00 37 1000.5
20220528052032 72 185 0.0 3.0 0.00 0.00 0.00 36 1000.7
20220528051529 72 133 0.0 3.0 0.00 0.00 0.00 37 1000.7
20220528051029 72 192 0.0 2.0 0.00 0.00 0.00 37 1000.8
20220528050529 71 155 0.0 2.0 0.00 0.00 0.00 38 1000.8
20220528050031 71 161 0.0 2.0 0.00 0.00 0.00 38 1001.0
20220528045533 72 175 0.0 2.0 0.00 0.00 0.00 38 1001.1
20220528045027 72 175 0.0 2.0 0.00 0.00 0.00 37 1000.9
20220528044527 72 188 0.0 1.0 0.00 0.00 0.00 36 1001.0
20220528044027 73 194 0.0 1.0 0.00 0.00 0.00 35 1001.2
20220528043527 73 194 0.0 2.0 0.00 0.00 0.00 36 1001.3
20220528043039 73 194 0.0 2.0 0.00 0.00 0.00 35 1001.4
20220528042526 73 200 0.0 2.0 0.00 0.00 0.00 35 1001.5
20220528042026 73 202 0.0 2.0 0.00 0.00 0.00 35 1001.6
20220528041543 73 200 0.0 4.0 0.00 0.00 0.00 35 1001.7
20220528041030 73 259 2.0 6.0 0.00 0.00 0.00 35 1001.7
20220528040529 73 321 2.0 6.0 0.00 0.00 0.00 35 1001.2
20220528040027 73 330 3.0 9.0 0.00 0.00 0.00 36 1001.3
20220528035527 73 274 6.0 9.0 0.00 0.00 0.00 36 1001.8
20220528035025 73 262 2.0 6.0 0.00 0.00 0.00 36 1001.6
20220528034532 73 260 4.0 6.0 0.00 0.00 0.00 36 1001.8
20220528034024 73 244 2.0 4.0 0.00 0.00 0.00 35 1001.9
20220528033528 72 13 0.0 2.0 0.00 0.00 0.00 35 1001.8
20220528033041 73 34 0.0 2.0 0.00 0.00 0.00 35 1001.4
20220528032524 73 281 0.0 3.0 0.00 0.00 0.00 36 1001.5
20220528032025 73 281 0.0 6.0 0.00 0.00 0.00 35 1001.5
20220528031534 73 273 2.0 7.0 0.00 0.00 0.00 35 1001.6
20220528031024 73 265 3.0 7.0 0.00 0.00 0.00 36 1001.4
20220528030526 73 270 1.0 4.0 0.00 0.00 0.00 37 1001.4
20220528030038 73 306 0.0 7.0 0.00 0.00 0.00 37 1001.4
20220528025524 73 313 3.0 8.0 0.00 0.00 0.00 37 1001.6
20220528025024 73 305 5.0 10.0 0.00 0.00 0.00 38 1001.5
20220528024524 74 276 5.0 8.0 0.00 0.00 0.00 38 1001.5
20220528024026 74 281 5.0 11.0 0.00 0.00 0.00 38 1001.3
20220528023523 74 279 4.0 12.0 0.00 0.00 0.00 37 1001.2
20220528023023 75 308 5.0 16.0 0.00 0.00 0.00 35 1001.0
20220528022522 75 325 8.0 16.0 0.00 0.00 0.00 35 1001.2
20220528022023 76 275 8.0 14.0 0.00 0.00 0.00 33 1001.2
20220528021522 76 270 3.0 9.0 0.00 0.00 0.00 33 1001.0
20220528021024 76 300 4.0 9.0 0.00 0.00 0.00 33 1001.0
20220528020522 76 277 6.0 11.0 0.00 0.00 0.00 33 1001.0
20220528020025 76 276 7.0 12.0 0.00 0.00 0.00 33 1001.0
20220528015521 76 267 7.0 12.0 0.00 0.00 0.00 32 1000.9
20220528015021 76 270 7.0 13.0 0.00 0.00 0.00 33 1001.1
20220528014521 76 261 8.0 13.0 0.00 0.00 0.00 32 1001.2
20220528014021 76 286 7.0 17.0 0.00 0.00 0.00 32 1001.2
20220528013523 76 248 6.0 14.0 0.00 0.00 0.00 31 1001.1
20220528013020 76 257 8.0 15.0 0.00 0.00 0.00 34 1001.1
20220528012522 77 293 11.0 15.0 0.00 0.00 0.00 34 1001.2
20220528012020 78 286 10.0 21.0 0.00 0.00 0.00 32 1001.1
20220528011519 79 294 14.0 23.0 0.00 0.00 0.00 27 1001.2
20220528011020 80 302 9.0 23.0 0.00 0.00 0.00 24 1001.0
20220528010521 80 9 8.0 22.0 0.00 0.00 0.00 24 1001.1
20220528010019 81 327 5.0 11.0 0.00 0.00 0.00 25 1001.5
20220528005522 81 304 4.0 11.0 0.00 0.00 0.00 25 1001.2
20220528005019 81 321 5.0 10.0 0.00 0.00 0.00 26 1001.2
20220528004519 81 355 5.0 10.0 0.00 0.00 0.00 25 1001.0
20220528004021 81 314 4.0 8.0 0.00 0.00 0.00 25 1001.1
20220528003519 82 329 4.0 8.0 0.00 0.00 0.00 25 1001.0
20220528003023 81 295 4.0 8.0 0.00 0.00 0.00 24 1001.0
20220528002519 82 299 3.0 10.0 0.00 0.00 0.00 25 1001.1
20220528002017 82 355 4.0 10.0 0.00 0.00 0.00 24 1001.0
20220528001528 83 333 5.0 10.0 0.00 0.00 0.00 24 1001.0
20220528001017 83 301 5.0 9.0 0.00 0.00 0.00 24 1001.1
20220528000516 83 296 3.0 9.0 0.00 0.00 0.00 25 1001.0
20220528000017 83 315 3.0 11.0 0.00 0.00 0.00 25 1001.2
20220527235514 83 5 5.0 11.0 0.00 0.00 0.00 24 1001.2
20220527235015 83 32 5.0 11.0 0.00 0.00 0.00 27 1001.3
20220527234513 83 323 6.0 11.0 0.00 0.00 0.00 23 1001.4
20220527234015 82 332 3.0 8.0 0.00 0.00 0.00 26 1001.5
20220527233512 82 296 2.0 9.0 0.00 0.00 0.00 27 1001.5
20220527233012 83 318 3.0 9.0 0.00 0.00 0.00 26 1001.6
20220527232511 82 34 3.0 8.0 0.00 0.00 0.00 26 1001.5
20220527232011 83 360 4.0 9.0 0.00 0.00 0.00 25 1001.6
20220527231517 83 311 4.0 11.0 0.00 0.00 0.00 27 1001.7
20220527231009 83 38 5.0 12.0 0.00 0.00 0.00 25 1001.8
20220527230509 83 327 6.0 14.0 0.00 0.00 0.00 25 1001.9
20220527230008 83 41 6.0 14.0 0.00 0.00 0.00 25 1002.1
20220527225507 83 320 5.0 11.0 0.00 0.00 0.00 26 1002.3
20220527225006 82 347 5.0 11.0 0.00 0.00 0.00 26 1002.4
20220527224511 82 340 3.0 11.0 0.00 0.00 0.00 25 1002.4
20220527224006 82 28 5.0 14.0 0.00 0.00 0.00 25 1002.4
20220527223506 82 340 8.0 14.0 0.00 0.00 0.00 24 1002.5
20220527223006 83 323 8.0 15.0 0.00 0.00 0.00 26 1002.5
20220527222505 82 346 8.0 15.0 0.00 0.00 0.00 25 1002.6
20220527222004 83 329 8.0 15.0 0.00 0.00 0.00 24 1002.7
20220527221508 83 26 2.0 10.0 0.00 0.00 0.00 26 1002.8
20220527221002 84 5 4.0 12.0 0.00 0.00 0.00 24 1002.8
20220527220502 84 325 6.0 12.0 0.00 0.00 0.00 25 1002.9
20220527220103 84 27 4.0 9.0 0.00 0.00 0.00 25 1003.0
20220527215559 84 5 5.0 10.0 0.00 0.00 0.00 25 1002.9
20220527215059 83 5 2.0 10.0 0.00 0.00 0.00 26 1003.0
20220527214603 84 313 5.0 11.0 0.00 0.00 0.00 22 1003.2
20220527214058 84 351 6.0 13.0 0.00 0.00 0.00 26 1003.3
20220527213559 84 307 7.0 13.0 0.00 0.00 0.00 23 1003.4
20220527213102 84 46 5.0 10.0 0.00 0.00 0.00 25 1003.5
20220527212558 83 334 0.0 11.0 0.00 0.00 0.00 26 1003.4
20220527212100 84 24 2.0 10.0 0.00 0.00 0.00 25 1003.5
20220527211556 84 58 4.0 8.0 0.00 0.00 0.00 23 1003.9
20220527211056 83 26 3.0 10.0 0.00 0.00 0.00 25 1004.0
20220527210557 83 196 1.0 10.0 0.00 0.00 0.00 23 1004.0
20220527210106 83 282 5.0 10.0 0.00 0.00 0.00 25 1004.2
20220527205555 83 306 5.0 11.0 0.00 0.00 0.00 24 1004.3
20220527205055 82 232 3.0 11.0 0.00 0.00 0.00 24 1004.2